AirNav   BOSE A20 Aviation Headset
 
 959 users online  

8T8 San Geronimo Airpark
San Antonio, Texas, USA

GOING TO SAN ANTONIO?


FAA INFORMATION EFFECTIVE 26 APRIL 2018

Location

FAA Identifier: 8T8
Lat/Long: 29-30-36.7000N / 098-47-54.3000W
29-30.611667N / 098-47.905000W
29.5101944 / -98.7984167
(estimated)
Elevation: 1040 ft. / 317 m (estimated)
Variation: 07E (1985)
From city: 10 miles W of SAN ANTONIO, TX
Time zone: UTC -5 (UTC -6 during Standard Time)
Zip code: 78253

Airport Operations

Airport use: Open to the public
Activation date: 05/1981
Control tower: no
ARTCC: HOUSTON CENTER
FSS: SAN ANGELO FLIGHT SERVICE STATION
NOTAMs facility: SJT (NOTAM-D service available)
Attendance: UNATNDD
Wind indicator: yes
Segmented circle: no

Airport Communications

CTAF: 122.9
WX AWOS-3 at CVB (10 nm S): 119.25 (830-931-0232)
WX AWOS-3 at 5C1 (14 nm NE): 118.725 (830-755-9099)
WX ASOS at SAT (17 nm E): PHONE 210-805-5583

Nearby radio navigation aids

VOR radial/distance  VOR name  Freq  Var
SATr237/19.3SAN ANTONIO VORTAC116.8008E
SSFr300/(23.9)STINSON VOR108.4009E
RNDr264/26.8RANDOLPH VORTAC112.3005E
CSIr131/32.9CENTER POINT VORTAC117.5008E

 
NDB name  Hdg/Dist  Freq  Var  ID
ALAMO240/13.336804EAN .- -.
HONDO059/21.232908EHMA .... -- .-
DEVINE011/23.535907EHHH .... .... ....

Airport Services

Parking: tiedowns

Runway Information

Runway 17/35

Dimensions: 3000 x 40 ft. / 914 x 12 m
SHOULDERS SOFT & MUDDY WHEN WET.
Surface: asphalt, in good condition
Runway edge markings: NUMBERS 35 FT HIGH. CNTRLN 4 INCH WIDE BY 10 FT LONG WITH 30 FT SPACES.
Gradient: N.
RUNWAY 17  RUNWAY 35
Latitude: 29-30.858538N29-30.363448N
Longitude: 098-47.905867W098-47.904235W
Elevation: 1037.0 ft.1005.0 ft.
Gradient: 1.1% UP
Traffic pattern: leftleft
Runway heading: 173 magnetic, 180 true353 magnetic, 360 true
Markings: NSTD, in good conditionNSTD, in good condition
Obstructions: 10 ft. tree, 200 ft. from runway, 100 ft. left of centerline
+5 FT FENCE 100 FT EAST OF RY CNTRLN FM THLD TO 200 FT. 8-20 FT TREES 100 FT EAST OF CNTRLN FM THLD TO 200 FT.
25 ft. tree, 200 ft. from runway, 100 ft. right of centerline
+5 FT FENCE 100 FT EAST OF RY CNTRLN FM THLD TO 200 FT. 15-30+ FT TREES 100 FT EAST OF CNTRLN FM THLD TO 200 FT.

Airport Ownership and Management from official FAA records

Ownership: Privately-owned
Owner: SAN GERONIMO AIRPARK INC.
15464 CULEBRA BOX 30
SAN ANTONIO, TX 78253
Manager: LEWIS MASON
15464 CULEBRA BOX 27
SAN ANTONIO, TX 78253
Phone (210) 688-9072
ADDITIONAL CTC- RON O'DEA 210-488-5088, SECRETARY/TREASURER OF AIRPORT ASSOCIATION.

Airport Operational Statistics

Aircraft based on the field: 103
Single engine airplanes: 100
Helicopters: 1
Ultralights: 2
    
Aircraft operations: avg 40/week *
71% local general aviation
29% transient general aviation
* for 12-month period ending 27 October 2016

Additional Remarks

+15 FT HANGARS LOCATED 112 FT WEST ALONG RY 17/35.
NO TOUCH & GO OR STOP & GO LANDINGS AT NIGHT. LIMIT 2 TOUCH & GO DURG DAYTIME.
FOR CD CTC SAT APCH AT 210-805-5516.

Instrument Procedures

There are no published instrument procedures at 8T8.

Some nearby airports with instrument procedures:

KCVB - Castroville Municipal Airport (10 nm S)
KSKF - Kelly Field Airport (14 nm SE)
5C1 - Boerne Stage Field Airport (14 nm NE)
KSAT - San Antonio International Airport (17 nm E)
KSSF - Stinson Municipal Airport (20 nm SE)
 
Loc | Ops | Rwys | IFR | FBO | Links
Com | Nav | Svcs | Stats | Notes

AirNav Hotels Sweepstakes
 
Area around 8T8 (San Geronimo Airpark)
 
Road maps at: MapQuest Bing Google
 
Aerial photo
WARNING: Photo may not be current or correct
Aerial photo of 8T8 (San Geronimo Airpark)
Photo by Brian Goode
Photo taken 15-Jan-2014
looking north.

Do you have a better or more recent aerial photo of San Geronimo Airpark that you would like to share? If so, please send us your photo.

 
Sectional chart

 
Airport distance calculator
Flying to San Geronimo Airpark? Find the distance to fly.

From to 8T8

Sunrise and sunset
Times for 20-May-2018
 Local
(UTC-5)
 Zulu
(UTC)
Morning civil twilight06:1511:15
Sunrise06:4111:41
Sunset20:2301:23
Evening civil twilight20:4901:49

Current date and time
Zulu (UTC)  20-May-2018 20:34:57
Local (UTC-5)  20-May-2018 15:34:57
 
METAR
KCVB 
10nm S 
202015Z AUTO 10012G16KT 10SM -TSDZ SCT034 OVC046 26/19 A2999 RMK AO2 LTG DSNT ALQS T02600185
K5C1 
14nm NE 
202015Z AUTO 04009G15KT 10SM BKN038 25/16 A3002 RMK AO1
KSKF 
15nm SE 
202016Z 01012KT 10SM VCTS BKN048 23/21 A2995 RMK AO2A RAE08 TSE16 SLP136 $
KSAT 
17nm E 
201951Z 06012G19KT 10SM BKN035 OVC060 26/19 A3001 RMK AO2 LTG DSNT ALQDS RAB11E14 PRESRR SLP143 +SHRA SW MOVG N P0000 T02610189
KSSF 
20nm SE 
202002Z 02013G18KT 10SM VCTS SCT040 BKN055 OVC085 26/22 A2993 RMK AO2 LTG DSNT ALQDS TSE1956 T02610217
TAF
KSKF 
15nm SE 
201900Z 2019/2124 13012KT 8000 VCSH BKN030 QNH2980INS TEMPO 2019/2101 16010G25KT 6000 -TSRA BKN030CB BECMG 2100/2101 12006KT 9999 NSW BKN035 QNH2987INS BECMG 2108/2109 12006KT 9999 BKN012 QNH2991INS BECMG 2115/2116 11012KT 9999 BKN025 QNH2995INS TX34/2021Z TN23/2111Z
KSAT 
17nm E 
201921Z 2019/2124 03010G20KT P6SM VCSH SCT035 BKN050 TEMPO 2019/2022 VRB15G25KT 4SM TSRA BKN035CB FM202200 09010KT P6SM VCTS SCT040 BKN060CB TEMPO 2022/2024 VRB15G25KT 4SM TSRA BKN035CB FM210600 13005KT 4SM BR OVC025 FM210900 13005KT 4SM BR OVC007 FM211500 13005KT P6SM BKN025
NOTAMs
Click for the latest NOTAMs
NOTAMs are issued by the DoD/FAA and will open in a separate window not controlled by AirNav.

 

 
 

Would you like to see your business listed on this page?

 If your business provides an interesting product or service to pilots, flight crews, aircraft, or users of the San Geronimo Airpark, you should consider listing it here.  To start the listing process, click on the button below
 
Add a business
 

Other Pages about San Geronimo Airpark

Update a link
 
Copyright © AirNav, LLC. All rights reserved. Privacy Policy  Contact